SCP
0 0 0 0 0 0 0 0 0 0 0 0 0 0 0 0 0 0 0 0 0 0 0 0 0 0 0 0 0 0 0 0 0
0 0 0 0 0 0 0 0 0 0 0 0 0 0 0 0 0 0 0 0 0 0 0 0 0 0 0 0 0 0 0 0 0
0 0 0 0 0 0 0 0 0 0 0 0 0 0 0 0 0 0 0 0 0 0 0 0 0 0 0 0 0 0 0 0 0
0 0 0 0 0 0 0 0 0 0 0 0 0 0 0 0 0 0 0 0 0 0 0 0 0 0 0 0 0 0 0 0 0
0 0 0 0 0 0 0 0 0 0 0 0 0 0 0 0 0 0 0 0 0 0 0 0 0 0 0 0 0 0 0 0 0
0 0 0 0 0 0 0 0 0 0 0 0 0 0 0 0 0 0 0 0 0 0 0 0 0 0 0 0 0 0 0 0 0
0 0 0 0 0 0 0 0 0 0 0 0 0 0 0 0 0 0 0 0 0 0 0 0 0 0 0 0 0 0 0 0 0
0 0 0 0 0 0 0 0 0 0 0 0 0 0 0 0 0 0 0 0 0 0 0 0 0 0 0 0 0 0 0 0 0
0 0 0 0 0 0 0 0 0 0 0 0 0 0 0 0 0 0 0 0 0 0 0 0 0 0 0 0 0 0 0 0 0
0 0 0 0 0 0 0 0 0 0 0 0 0 0 0 0 0 0 0 0 0 0 0 0 0 0 0 0 0 0 0 0 0
0 0 0 0 0 0 0 0 0 0 0 0 0 0 0 0 0 0 0 0 0 0 0 0 0 0 0 0 0 0 0 0 0
0 0 0 0 0 0 0 0 0 0 0 0 0 0 0 0 0 0 0 0 0 0 0 0 0 0 0 0 0 0 0 0 0
0 0 0 0 0 0 0 0 0 0 0 0 0 0 0 0 0 0 0 0 0 0 0 0 0 0 0 0 0 0 0 0 0
0 0 0 0 0 0 0 0 0 0 0 0 0 0 0 0 0 0 0 0 0 0 0 0 0 0 0 0 0 0 0 0 0
0 0 0 0 0 0 0 0 0 0 0 0 0 0 0 0 0 0 0 0 0 0 0 0 0 0 0 0 0 0 0 0 0
0 0 0 0 0 0 0 0 0 0 0 0 0 0 0 0 0 0 0 0 0 0 0 0 0 0 0 0 0 0 0 0 0
0 0 0 0 0 0 0 0 0 0 0 0 0 0 0 0 0 0 0 0 0 0 0 0 0 0 0 0 0 0 0 0 0
0 0 0 0 0 0 0 0 0 0 0 0 0 0 0 0 0 0 0 0 0 0 0 0 0 0 0 0 0 0 0 0 0
0 0 0 0 0 0 0 0 0 0 0 0 0 0 0 0 0 0 -0 0 0 0 0 0 0 0 0 0 0 0 0 0 0
0 0 0 0 0 0 0 0 0 0 0 0 0 0 0 0 0 0 0 0 0 0 0 0 0 0 0 0 0 0 0 0 0
Wind_Speed_500mb
17 17 16 15 14 13 14 16 19 21 23 25 28 31 33 36 37 36 32 28 26 26 26 23 26 24 23 23 26 29 28 27 27
16 15 16 15 14 13 13 14 15 16 18 20 23 26 30 33 35 37 38 36 32 32 35 30 30 30 29 27 28 30 34 34 34
15 14 15 15 14 14 14 13 13 13 14 15 18 20 23 27 29 32 34 35 37 34 34 37 35 32 36 33 31 33 36 38 39
16 14 14 15 15 15 15 14 13 13 14 15 16 18 19 19 20 22 27 29 28 31 38 40 38 33 33 36 36 37 38 41 42
19 18 17 16 16 16 16 17 15 14 14 14 14 15 15 16 16 16 17 21 23 24 33 41 44 43 41 35 37 41 39 41 44
21 21 20 18 18 19 18 17 16 15 16 17 17 16 17 17 17 17 19 19 23 26 30 36 40 48 51 48 46 45 41 44 46
19 18 19 20 19 21 21 21 21 20 19 18 18 17 17 17 16 16 18 20 22 25 30 33 36 41 48 53 55 56 60 57 54
16 15 15 15 16 17 17 18 19 20 21 20 20 19 18 17 15 13 14 17 18 21 24 29 31 32 36 42 47 52 56 61 67
16 16 16 17 18 18 17 18 19 20 21 22 21 21 20 18 14 12 13 13 16 19 22 24 26 28 29 32 34 40 46 52 56
19 20 20 21 22 22 20 22 23 24 23 24 24 21 20 18 14 12 10 13 18 21 19 21 24 25 25 26 30 30 35 41 46
21 23 24 26 27 28 28 28 28 29 29 26 26 24 22 17 11 8 9 14 18 15 15 17 21 24 25 28 32 34 32 35 42
22 24 26 27 27 28 28 27 28 29 27 26 26 26 22 15 9 5 6 11 14 16 17 19 23 25 22 22 25 28 28 31 37
27 28 28 29 30 31 31 31 28 29 29 26 24 25 21 14 9 6 5 10 14 17 20 23 25 24 22 21 23 27 25 32 39
27 29 30 31 30 31 31 30 32 34 26 24 23 16 8 6 9 5 5 13 17 17 21 24 26 24 25 27 30 32 36 37 46
27 28 28 29 29 29 29 30 28 32 33 24 15 6 2 7 10 8 6 12 21 24 25 27 27 26 27 28 30 34 39 42 47
27 28 28 28 29 29 30 30 28 27 28 20 7 2 9 10 7 14 17 16 24 30 32 30 28 28 27 29 31 35 39 44 47
27 29 29 29 27 27 28 30 29 29 30 25 16 7 10 18 18 29 26 25 30 35 32 28 25 27 27 28 31 33 38 44 48
27 29 29 29 29 29 30 30 29 29 26 22 15 10 8 24 17 18 20 24 29 29 27 21 17 22 25 27 31 34 38 40 44
25 27 28 29 29 29 29 29 29 27 26 21 16 15 17 11 20 11 27 22 24 23 19 13 11 18 28 28 34 35 38 39 39
23 25 25 26 26 27 27 27 27 27 25 26 26 19 20 13 15 44 46 35 23 23 14 9 13 19 28 34 36 38 39 41 36
Wind_Direction_500mb
345 342 338 334 329 319 307 294 286 282 277 271 267 266 265 262 258 256 258 259 261 255 261 266 257 261 268 270 260 257 259 255 252
354 350 349 344 339 330 321 312 303 297 292 286 279 272 268 266 263 260 256 254 253 252 263 266 264 258 263 266 266 258 258 260 257
350 353 351 345 344 337 332 323 312 304 297 289 286 282 276 272 268 263 260 257 253 253 265 264 268 266 265 264 264 264 258 258 258
344 352 354 350 348 343 336 331 326 317 314 309 301 294 292 290 284 274 260 255 257 248 254 258 262 268 266 260 266 265 263 258 258
350 353 349 348 346 346 341 336 333 331 327 322 314 305 301 301 298 290 271 255 252 255 255 259 259 259 267 271 270 264 263 260 257
352 349 351 351 348 347 342 336 331 326 321 316 311 305 298 293 291 285 279 273 264 265 267 266 266 264 266 268 266 267 267 265 264
357 355 355 354 350 347 341 338 334 329 322 317 312 310 306 299 292 285 281 283 284 281 282 279 273 271 268 268 266 263 264 262 261
1 3 359 359 354 347 344 338 332 328 324 317 313 309 306 304 302 300 283 277 284 289 293 294 291 286 281 277 277 275 270 266 263
6 7 6 359 356 352 347 342 338 334 329 323 319 313 306 301 302 291 287 296 303 308 306 301 299 289 291 296 293 284 277 274 271
6 359 354 348 346 344 341 338 334 331 331 327 322 316 312 303 291 288 303 322 326 320 319 325 319 308 299 299 295 292 292 290 284
355 349 344 340 336 335 333 330 327 325 326 326 320 314 308 295 279 285 324 337 349 344 345 350 342 343 335 325 319 310 295 297 293
347 343 341 338 334 333 330 325 321 316 318 320 313 308 307 288 257 268 323 329 337 345 345 345 352 4 5 343 336 334 323 304 291
339 335 334 332 330 328 329 326 324 321 323 321 310 307 307 254 213 214 326 315 327 338 338 346 350 355 355 351 344 337 330 330 322
335 336 335 334 332 329 328 332 329 327 334 330 323 316 339 156 183 189 303 313 316 327 333 334 344 344 340 346 345 340 339 330 320
341 340 338 337 335 333 330 333 338 331 337 340 330 296 248 157 196 217 266 293 304 315 323 319 329 337 336 341 337 342 344 342 331
341 342 342 340 338 337 336 338 340 335 339 353 328 245 204 181 221 262 266 281 302 308 317 316 312 321 329 337 337 339 340 347 344
345 346 346 347 347 343 340 340 348 348 349 357 349 330 241 223 268 269 267 276 289 306 313 314 310 309 326 335 335 334 337 343 348
350 350 350 350 351 349 348 346 348 350 352 355 9 341 334 318 268 254 278 286 305 313 318 314 311 308 324 334 336 338 338 341 347
351 352 351 353 354 353 351 351 350 350 345 348 336 325 309 323 314 289 300 319 326 323 333 329 322 321 323 337 336 339 340 342 343
352 354 355 356 359 358 356 354 353 351 348 341 339 338 322 300 297 310 321 332 354 343 320 341 338 321 321 328 334 337 336 339 339
Wind_Speed_850mb
17 17 16 15 14 13 14 16 19 21 23 25 28 31 33 36 37 36 32 28 26 26 26 23 26 24 23 23 26 29 28 27 27
16 15 16 15 14 13 13 14 15 16 18 20 23 26 30 33 35 37 38 36 32 32 35 30 30 30 29 27 28 30 34 34 34
15 14 15 15 14 14 14 13 13 13 14 15 18 20 23 27 29 32 34 35 37 34 34 37 35 32 36 33 31 33 36 38 39
16 14 14 15 15 15 15 14 13 13 14 15 16 18 19 19 20 22 27 29 28 31 38 40 38 33 33 36 36 37 38 41 42
19 18 17 16 16 16 16 17 15 14 14 14 14 15 15 16 16 16 17 21 23 24 33 41 44 43 41 35 37 41 39 41 44
21 21 20 18 18 19 18 17 16 15 16 17 17 16 17 17 17 17 19 19 23 26 30 36 40 48 51 48 46 45 41 44 46
19 18 19 20 19 21 21 21 21 20 19 18 18 17 17 17 16 16 18 20 22 25 30 33 36 41 48 53 55 56 60 57 54
16 15 15 15 16 17 17 18 19 20 21 20 20 19 18 17 15 13 14 17 18 21 24 29 31 32 36 42 47 52 56 61 67
16 16 16 17 18 18 17 18 19 20 21 22 21 21 20 18 14 12 13 13 16 19 22 24 26 28 29 32 34 40 46 52 56
19 20 20 21 22 22 20 22 23 24 23 24 24 21 20 18 14 12 10 13 18 21 19 21 24 25 25 26 30 30 35 41 46
21 23 24 26 27 28 28 28 28 29 29 26 26 24 22 17 11 8 9 14 18 15 15 17 21 24 25 28 32 34 32 35 42
22 24 26 27 27 28 28 27 28 29 27 26 26 26 22 15 9 5 6 11 14 16 17 19 23 25 22 22 25 28 28 31 37
27 28 28 29 30 31 31 31 28 29 29 26 24 25 21 14 9 6 5 10 14 17 20 23 25 24 22 21 23 27 25 32 39
27 29 30 31 30 31 31 30 32 34 26 24 23 16 8 6 9 5 5 13 17 17 21 24 26 24 25 27 30 32 36 37 46
27 28 28 29 29 29 29 30 28 32 33 24 15 6 2 7 10 8 6 12 21 24 25 27 27 26 27 28 30 34 39 42 47
27 28 28 28 29 29 30 30 28 27 28 20 7 2 9 10 7 14 17 16 24 30 32 30 28 28 27 29 31 35 39 44 47
27 29 29 29 27 27 28 30 29 29 30 25 16 7 10 18 18 29 26 25 30 35 32 28 25 27 27 28 31 33 38 44 48
27 29 29 29 29 29 30 30 29 29 26 22 15 10 8 24 17 18 20 24 29 29 27 21 17 22 25 27 31 34 38 40 44
25 27 28 29 29 29 29 29 29 27 26 21 16 15 17 11 20 11 27 22 24 23 19 13 11 18 28 28 34 35 38 39 39
23 25 25 26 26 27 27 27 27 27 25 26 26 19 20 13 15 44 46 35 23 23 14 9 13 19 28 34 36 38 39 41 36
Wind_Direction_850mb
345 342 338 334 329 319 307 294 286 282 277 271 267 266 265 262 258 256 258 259 261 255 261 266 257 261 268 270 260 257 259 255 252
354 350 349 344 339 330 321 312 303 297 292 286 279 272 268 266 263 260 256 254 253 252 263 266 264 258 263 266 266 258 258 260 257
350 353 351 345 344 337 332 323 312 304 297 289 286 282 276 272 268 263 260 257 253 253 265 264 268 266 265 264 264 264 258 258 258
344 352 354 350 348 343 336 331 326 317 314 309 301 294 292 290 284 274 260 255 257 248 254 258 262 268 266 260 266 265 263 258 258
350 353 349 348 346 346 341 336 333 331 327 322 314 305 301 301 298 290 271 255 252 255 255 259 259 259 267 271 270 264 263 260 257
352 349 351 351 348 347 342 336 331 326 321 316 311 305 298 293 291 285 279 273 264 265 267 266 266 264 266 268 266 267 267 265 264
357 355 355 354 350 347 341 338 334 329 322 317 312 310 306 299 292 285 281 283 284 281 282 279 273 271 268 268 266 263 264 262 261
1 3 359 359 354 347 344 338 332 328 324 317 313 309 306 304 302 300 283 277 284 289 293 294 291 286 281 277 277 275 270 266 263
6 7 6 359 356 352 347 342 338 334 329 323 319 313 306 301 302 291 287 296 303 308 306 301 299 289 291 296 293 284 277 274 271
6 359 354 348 346 344 341 338 334 331 331 327 322 316 312 303 291 288 303 322 326 320 319 325 319 308 299 299 295 292 292 290 284
355 349 344 340 336 335 333 330 327 325 326 326 320 314 308 295 279 285 324 337 349 344 345 350 342 343 335 325 319 310 295 297 293
347 343 341 338 334 333 330 325 321 316 318 320 313 308 307 288 257 268 323 329 337 345 345 345 352 4 5 343 336 334 323 304 291
339 335 334 332 330 328 329 326 324 321 323 321 310 307 307 254 213 214 326 315 327 338 338 346 350 355 355 351 344 337 330 330 322
335 336 335 334 332 329 328 332 329 327 334 330 323 316 339 156 183 189 303 313 316 327 333 334 344 344 340 346 345 340 339 330 320
341 340 338 337 335 333 330 333 338 331 337 340 330 296 248 157 196 217 266 293 304 315 323 319 329 337 336 341 337 342 344 342 331
341 342 342 340 338 337 336 338 340 335 339 353 328 245 204 181 221 262 266 281 302 308 317 316 312 321 329 337 337 339 340 347 344
345 346 346 347 347 343 340 340 348 348 349 357 349 330 241 223 268 269 267 276 289 306 313 314 310 309 326 335 335 334 337 343 348
350 350 350 350 351 349 348 346 348 350 352 355 9 341 334 318 268 254 278 286 305 313 318 314 311 308 324 334 336 338 338 341 347
351 352 351 353 354 353 351 351 350 350 345 348 336 325 309 323 314 289 300 319 326 323 333 329 322 321 323 337 336 339 340 342 343
352 354 355 356 359 358 356 354 353 351 348 341 339 338 322 300 297 310 321 332 354 343 320 341 338 321 321 328 334 337 336 339 339